[[{"header":{"parameterUnit":"m.s-1","parameterCategory":1,"la1":30.2991,"la2":30.254,"lo1":-89.0895,"lo2":-89.0444,"dy":0.0017,"dx":0.0017,"nx":28,"ny":28,"refTime":"2024-03-25T03:00:00:Z","depth":0,"parameterNumber":2,"parameterNumberName":"U-component_of_WINDS"},"data":[0,0,0,0,0,0,0,0,0,0,0,0,0,0,0,0,0,0,0,0,0,0,0,0,0,0,0,0,0,0,0,0,0,0,0,0,0,0,0,0,0,0,0,0,0,0,0,0,0,0,0,0,0,0,0,0,0,0,-3.8452,-3.8453,0,-3.8539,-3.854,-3.8541,-3.8561,-3.856,-3.8559,-3.8559,-3.8647,-3.865,-3.8653,0,0,0,0,0,0,0,0,0,0,0,0,0,-3.8304,-3.8307,-3.8452,-3.8453,-3.8454,-3.8538,-3.854,-3.8541,-3.8561,-3.856,-3.8559,-3.8559,-3.8647,-3.865,-3.8653,0,0,0,0,0,0,0,0,0,0,0,0,0,-3.8377,-3.8308,-3.8452,-3.8474,-3.8477,-3.8538,-3.854,-3.8541,-3.8561,-3.856,-3.8559,-3.8558,-3.8645,-3.865,-3.8654,-3.8699,0,0,-3.8667,-3.8669,0,0,0,0,0,0,0,0,-3.8373,-3.8383,-3.847,-3.8473,-3.8476,-3.8538,-3.852,-3.8594,-3.8561,-3.8529,-3.8559,-3.8558,-3.8612,-3.8619,-3.8637,-3.8703,-3.8707,-3.8668,-3.867,-3.8672,-3.8673,0,0,0,0,0,0,0,-3.8368,-3.8379,-3.8486,-3.8471,-3.8475,-3.848,-3.8489,-3.8534,-3.8574,-3.8532,-3.8533,-3.8543,-3.8613,-3.8633,-3.8639,-3.8708,-3.8668,-3.8671,-3.8674,-3.8676,-3.8816,-3.8817,0,0,0,0,0,0,-3.8359,-3.8375,-3.8483,-3.8489,-3.8421,-3.8483,-3.8494,-3.8519,-3.8574,-3.8581,-3.8544,-3.8544,-3.8626,-3.8634,-3.8642,-3.8699,-3.8672,-3.8676,-3.8679,-3.8815,-3.8816,-3.8817,0,0,0,0,0,0,-3.8356,-3.8369,-3.848,-3.8432,-3.8447,-3.8487,-3.8515,-3.8521,-3.8541,-3.8583,-3.859,-3.8556,-3.8625,-3.8636,-3.8685,-3.8702,-3.8678,-3.8682,-3.8814,-3.8815,-3.8817,-3.8811,0,0,0,0,0,0,-3.8351,-3.8367,-3.8384,-3.8433,-3.8449,-3.8521,-3.8516,-3.8523,-3.8548,-3.8549,-3.8597,-3.8604,-3.8625,-3.8678,-3.8689,-3.8708,-3.8686,-3.8812,-3.8814,-3.8816,-3.881,-3.8813,-3.8815,0,0,0,0,0,-3.8346,-3.8379,-3.8385,-3.8398,-3.8472,-3.8521,-3.8531,-3.8555,-3.8549,-3.8567,-3.8595,-3.8602,-3.8699,-3.8683,-3.8695,-3.8715,-3.8811,-3.8814,-3.8816,-3.8809,-3.8812,-3.8815,0,0,0,0,0,0,-3.8332,-3.8386,-3.8393,-3.8443,-3.8477,-3.8525,-3.8548,-3.8558,-3.8594,-3.8594,-3.8622,-3.8633,-3.8679,-3.8703,-3.8684,-3.8762,-3.8755,-3.876,-3.8745,-3.8748,-3.8751,-3.8744,-3.8689,0,0,0,0,0,-3.8335,-3.8371,-3.8416,-3.8456,-3.8473,-3.8507,-3.853,-3.8546,-3.8582,-3.8597,-3.8628,-3.8664,-3.8702,-3.8727,-3.8764,-3.8814,-3.8825,-3.8834,-3.8836,-3.8838,-3.8842,-3.887,-3.8875,-3.8825,-3.8825,-3.8825,0,0,-3.8341,-3.8375,-3.8395,-3.8454,-3.8482,-3.8519,-3.8519,-3.8558,-3.8585,-3.8603,-3.8651,-3.8675,-3.8717,-3.8766,-3.8789,-3.8787,-3.8858,-3.8841,-3.8842,-3.8845,-3.8873,-3.8878,-3.8882,-3.8827,-3.8827,-3.8827,0,0,-3.837,-3.8399,-3.8436,-3.8464,-3.8508,-3.8531,-3.854,-3.8586,-3.8603,-3.8651,-3.8665,-3.8698,-3.8764,-3.8793,-3.8816,-3.8858,-3.8866,-3.887,-3.8881,-3.8908,-3.8912,-3.8916,-3.893,-3.8935,-3.8873,-3.8873,-3.8873,0,-3.8372,-3.8427,-3.8453,-3.8491,-3.8516,-3.8534,-3.8572,-3.8598,-3.8652,-3.8669,-3.8665,-3.8748,-3.8778,-3.8834,-3.8844,-3.8863,-3.8874,-3.8864,-3.891,-3.8913,-3.8917,-3.8931,-3.8937,-3.8873,-3.8873,-3.8873,-3.8873,0,-3.8427,-3.8466,-3.849,-3.8541,-3.8569,-3.8607,-3.8638,-3.8664,-3.8677,-3.8701,-3.875,-3.8786,-3.8831,-3.8846,-3.886,-3.8905,-3.8902,-3.8904,-3.8897,-3.8921,-3.8935,-3.8941,-3.8874,-3.8874,-3.8874,-3.8873,0,0,-3.8449,-3.8515,-3.8523,-3.8547,-3.8597,-3.8627,-3.8665,-3.871,-3.8731,-3.8768,-3.8801,-3.8856,-3.8858,-3.8885,-3.8902,-3.8926,-3.8957,-3.8925,-3.8926,-3.8929,-3.9009,-3.9007,-3.9012,-3.8963,-3.8964,-3.8965,-3.9005,0,-3.8484,-3.8553,-3.8578,-3.8635,-3.8671,-3.8689,-3.8723,-3.8757,-3.878,-3.8814,-3.884,-3.8879,-3.8879,-3.8895,-3.892,-3.8948,-3.8973,-3.8945,-3.8994,-3.8995,-3.8982,-3.902,-3.9018,-3.9053,-3.9011,-3.9012,-3.9012,0,-3.8534,-3.8571,-3.8632,-3.8678,-3.8694,-3.8723,-3.8766,-3.8799,-3.8838,-3.8854,-3.8884,-3.8899,-3.8941,-3.8932,-3.899,-3.897,-3.8992,-3.9009,-3.9011,-3.9016,-3.9005,-3.9025,-3.9065,-3.907,-3.9021,-3.902,-3.902,0,-3.8543,-3.8609,-3.8654,-3.8673,-3.8728,-3.8748,-3.8772,-3.8811,-3.8836,-3.8874,-3.8891,-3.8933,-3.8956,-3.8989,-3.9016,-3.9007,-3.9071,-3.9064,-3.9084,-3.9084,-3.9096,-3.9095,-3.914,-3.9111,-3.9111,-3.9111,-3.9111,0,-3.858,-3.8616,-3.8659,-3.8686,-3.8727,-3.8756,-3.8796,-3.8821,-3.8855,-3.8888,-3.8907,-3.8937,-3.8971,-3.9006,-3.9028,-3.9072,-3.9083,-3.9096,-3.9101,-3.9094,-3.9092,-3.9108,-3.9106,-3.9113,-3.9112,-3.9112,-3.9112,0,-3.8597,-3.8627,-3.8677,-3.8725,-3.8738,-3.8766,-3.8807,-3.8834,-3.8859,-3.89,-3.8911,-3.895,-3.8992,-3.9022,-3.9077,-3.9092,-3.9139,-3.9144,-3.9126,-3.9128,-3.9147,-3.9144,-3.9203,-3.9212,-3.9177,-3.9178,-3.9178,0,-3.8618,-3.8646,-3.8697,-3.872,-3.8744,-3.8781,-3.8807,-3.8837,-3.8863,-3.891,-3.8932,-3.8976,-3.9012,-3.9079,-3.9112,-3.9154,-3.916,-3.9178,-3.9166,-3.9158,-3.916,-3.9158,-3.9161,-3.9179,-3.9179,-3.9179,-3.918,0,-3.8652,-3.8665,-3.8702,-3.8744,-3.8775,-3.8809,-3.8844,-3.8862,-3.8898,-3.8927,-3.897,-3.8998,-3.9054,-3.9097,-3.9142,-3.9167,-3.918,-3.9183,-3.919,-3.9183,-3.917,-3.9177,-3.9129,-3.9181,-3.9181,-3.9181,-3.9181,-3.9181,-3.8671,-3.8697,-3.8737,-3.8778,-3.8807,-3.8839,-3.8868,-3.8896,-3.8932,-3.898,-3.8995,-3.904,-3.908,-3.9142,-3.9167,-3.9203,-3.9202,-3.9212,-3.9215,-3.9217,-3.9216,-3.9165,-3.9211,-3.9211,-3.9211,-3.9211,-3.9211,0,-3.8706,-3.8733,-3.877,-3.8818,-3.885,-3.8859,-3.8898,-3.8924,-3.8963,-3.8999,-3.9034,-3.9084,-3.9126,-3.9163,-3.9207,-3.9228,-3.9235,-3.9239,-3.9237,-3.9243,-3.9214,-3.9204,-3.9233,-3.9233,-3.9233,-3.9233,-3.9233,-3.9232,-3.8728,-3.8772,-3.8791,-3.885,-3.8877,-3.8921,-3.8942,-3.8972,-3.9001,-3.9056,-3.9091,-3.9114,-3.9151,-3.9197,-3.9236,-3.9246,-3.9261,-3.9264,-3.9275,-3.9247,-3.9245,-3.9242,-3.9232,-3.9267,-3.9267,-3.93,-3.93,-3.93]},{"header":{"parameterUnit":"m.s-1","parameterCategory":1,"la1":30.2991,"la2":30.254,"lo1":-89.0895,"lo2":-89.0444,"dy":0.0017,"dx":0.0017,"nx":28,"ny":28,"refTime":"2024-03-25T03:00:00:Z","depth":0,"parameterNumber":3,"parameterNumberName":"V-component_of_WINDS"},"data":[0,0,0,0,0,0,0,0,0,0,0,0,0,0,0,0,0,0,0,0,0,0,0,0,0,0,0,0,0,0,0,0,0,0,0,0,0,0,0,0,0,0,0,0,0,0,0,0,0,0,0,0,0,0,0,0,0,0,7.4118,7.4119,0,7.4206,7.4207,7.4208,7.4194,7.4192,7.4191,7.419,7.4277,7.428,7.4284,0,0,0,0,0,0,0,0,0,0,0,0,0,7.3935,7.3939,7.4118,7.4119,7.412,7.4206,7.4207,7.4209,7.4194,7.4192,7.4191,7.4189,7.4276,7.428,7.4284,0,0,0,0,0,0,0,0,0,0,0,0,0,7.4018,7.394,7.4118,7.4123,7.4125,7.4206,7.4208,7.4209,7.4195,7.4192,7.419,7.4188,7.4274,7.428,7.4285,7.4365,0,0,7.4302,7.4305,0,0,0,0,0,0,0,0,7.4013,7.4025,7.4122,7.4123,7.4125,7.4187,7.4175,7.4261,7.4195,7.4168,7.419,7.4187,7.4249,7.4256,7.4278,7.4369,7.4373,7.4303,7.4306,7.4309,7.431,0,0,0,0,0,0,0,7.4008,7.4021,7.4153,7.4123,7.4125,7.4121,7.413,7.4191,7.422,7.417,7.4169,7.418,7.4249,7.4272,7.4279,7.4374,7.4303,7.4308,7.4311,7.4313,7.4539,7.4541,0,0,0,0,0,0,7.4001,7.4016,7.415,7.4155,7.4063,7.4126,7.4137,7.4169,7.4219,7.4225,7.4182,7.4179,7.4264,7.4273,7.4282,7.4382,7.4308,7.4314,7.4317,7.4536,7.4539,7.4542,0,0,0,0,0,0,7.3997,7.4013,7.4146,7.4086,7.4103,7.4132,7.4169,7.4172,7.4195,7.4228,7.4233,7.4201,7.4262,7.4275,7.4346,7.4384,7.4316,7.4321,7.4533,7.4537,7.4541,7.4579,0,0,0,0,0,0,7.3992,7.4011,7.4042,7.4087,7.4106,7.4209,7.4171,7.4176,7.4206,7.4203,7.4247,7.4252,7.4261,7.4337,7.4351,7.4391,7.4326,7.453,7.4535,7.4539,7.4574,7.4584,7.4592,0,0,0,0,0,7.3985,7.4048,7.4044,7.406,7.4145,7.4211,7.4222,7.4232,7.4209,7.424,7.4262,7.4251,7.4378,7.4345,7.436,7.4402,7.4527,7.4533,7.4539,7.457,7.4582,7.4591,0,0,0,0,0,0,7.4006,7.4054,7.405,7.4129,7.4167,7.4208,7.4248,7.4244,7.4287,7.4282,7.4293,7.4303,7.4375,7.4395,7.4358,7.4483,7.4449,7.4458,7.4468,7.4479,7.4487,7.4481,7.433,0,0,0,0,0,7.402,7.407,7.4109,7.4176,7.4195,7.4218,7.4247,7.4253,7.4291,7.4306,7.4332,7.4369,7.4417,7.4449,7.4495,7.4577,7.4587,7.4613,7.4622,7.4629,7.4637,7.4684,7.4697,7.4561,7.4561,7.4561,0,0,7.405,7.4082,7.4113,7.4181,7.421,7.4262,7.4231,7.4286,7.4325,7.4314,7.4383,7.4404,7.4446,7.4523,7.4559,7.4542,7.4677,7.4637,7.4642,7.4646,7.4691,7.4704,7.4716,7.4565,7.4565,7.4564,0,0,7.413,7.4159,7.4219,7.4249,7.4295,7.431,7.4325,7.4368,7.4382,7.4452,7.4446,7.4491,7.4573,7.4604,7.4631,7.4725,7.4717,7.474,7.4785,7.4831,7.4841,7.4851,7.4886,7.4899,7.4747,7.4748,7.4748,0,7.416,7.4239,7.425,7.4307,7.4337,7.4331,7.4392,7.4421,7.4478,7.45,7.4481,7.4586,7.4614,7.4699,7.4723,7.4744,7.4761,7.4735,7.4839,7.4849,7.4858,7.4892,7.4905,7.475,7.475,7.475,7.4749,0,7.4275,7.4329,7.4372,7.443,7.4465,7.4524,7.4544,7.4578,7.458,7.4598,7.4671,7.4704,7.4758,7.4778,7.478,7.4865,7.4853,7.4837,7.4803,7.4873,7.4905,7.4918,7.4754,7.4753,7.4752,7.4751,0,0,7.437,7.4435,7.4451,7.4478,7.4529,7.4571,7.4629,7.4683,7.4714,7.4753,7.4804,7.4875,7.4861,7.4891,7.4896,7.4936,7.5011,7.4915,7.4916,7.4933,7.5109,7.5122,7.5137,7.5006,7.5009,7.501,7.5106,0,7.4457,7.4562,7.4574,7.4667,7.4719,7.4714,7.4766,7.4802,7.4821,7.4866,7.4886,7.4937,7.4914,7.4932,7.4971,7.4994,7.5047,7.4987,7.5053,7.5055,7.5044,7.5153,7.5167,7.5255,7.5118,7.512,7.5122,0,7.4571,7.4617,7.4716,7.4762,7.4784,7.483,7.4882,7.4925,7.4967,7.4977,7.5012,7.5013,7.5074,7.5037,7.5122,7.5081,7.5109,7.5124,7.5128,7.5135,7.5094,7.5165,7.5283,7.5297,7.5141,7.514,7.5138,0,7.4634,7.4719,7.4791,7.4814,7.4868,7.4901,7.4925,7.4964,7.4997,7.5042,7.5063,7.5114,7.5142,7.5181,7.5196,7.5168,7.528,7.5244,7.5292,7.5291,7.5316,7.5315,7.5442,7.5332,7.5332,7.5331,7.5331,0,7.4729,7.4791,7.482,7.4863,7.4932,7.4946,7.5013,7.5036,7.5071,7.5119,7.5118,7.5163,7.5179,7.5227,7.5238,7.5308,7.532,7.5331,7.5333,7.5332,7.5331,7.5351,7.5346,7.5335,7.5334,7.5333,7.5333,0,7.4811,7.4832,7.491,7.4956,7.4969,7.5018,7.5057,7.5099,7.5118,7.5179,7.5194,7.5222,7.5279,7.5297,7.5365,7.5373,7.5454,7.5451,7.5441,7.5442,7.5489,7.5485,7.5635,7.5656,7.553,7.5531,7.5532,0,7.4871,7.4919,7.497,7.5003,7.5029,7.5082,7.5116,7.5131,7.5166,7.5219,7.5255,7.5311,7.5357,7.5448,7.5474,7.5526,7.5525,7.5574,7.5533,7.553,7.5528,7.5525,7.5531,7.5582,7.5583,7.5584,7.5585,0,7.4977,7.4986,7.5036,7.509,7.5131,7.5173,7.5215,7.5241,7.5263,7.5303,7.5361,7.5397,7.5468,7.5524,7.5578,7.5602,7.5598,7.5598,7.5612,7.5611,7.5605,7.5611,7.5464,7.5595,7.5594,7.5593,7.5592,7.5592,7.5051,7.5094,7.5138,7.5194,7.5227,7.5266,7.5309,7.5334,7.5383,7.5443,7.5448,7.5512,7.5554,7.5626,7.5653,7.5703,7.5689,7.5708,7.5714,7.5719,7.5724,7.5596,7.5712,7.5712,7.5712,7.5711,7.5711,0,7.5159,7.5187,7.5238,7.5297,7.5342,7.5335,7.5381,7.5418,7.5474,7.5514,7.556,7.5628,7.5683,7.5715,7.577,7.5804,7.5804,7.5818,7.5817,7.5823,7.5732,7.5715,7.5818,7.5818,7.5818,7.5818,7.5818,7.5818,7.522,7.5293,7.5307,7.5397,7.5424,7.5488,7.5515,7.5551,7.5584,7.566,7.5707,7.5727,7.5764,7.5823,7.5873,7.5881,7.5902,7.5918,7.5925,7.584,7.5829,7.5818,7.5803,7.5922,7.5923,7.6012,7.6013,7.6013]}]]